AirNav   Everest Fuels
 
 762 users online  

5PS0 Beau Street Heliport
Washington, Pennsylvania, USA

GOING TO WASHINGTON?


FAA INFORMATION EFFECTIVE 18 JUNE 2020

Location

FAA Identifier: 5PS0
Lat/Long: 40-10-45.2560N 080-13-02.2130W
40-10.754267N 080-13.036883W
40.1792378,-80.2172814
(estimated)
Elevation: 1243 ft. / 379 m (estimated)
Variation: 07W (1985)
From city: 2 miles SW of WASHINGTON, PA
Time zone: UTC -4 (UTC -5 during Standard Time)
Zip code: 15301

Heliport Operations

Heliport use: Private use, PERSONAL USE.
Activation date: 06/1987
Control tower: no
ARTCC: CLEVELAND CENTER
FSS: ALTOONA FLIGHT SERVICE STATION
Attendance: UNATNDD
Segmented circle: no

Heliport Communications

WX AWOS-3PT at AFJ (4 nm SW): 119.175 (724-228-3529)
WX ASOS at AGC (17 nm NE): 120.55 (412-466-8968)
WX AWOS-3 at FWQ (18 nm E): 118.475 (724-379-5815)
WX ASOS at PIT (19 nm N): PHONE 412-472-0145
WX AWOS-A at 42PN (19 nm NE): PHONE 412-442-2213
WX ASOS at HLG (20 nm W): 127.375 (304-277-3504)

Nearby radio navigation aids

VOR radial/distance  VOR name  Freq  Var
AGCr243/10.0ALLEGHENY VOR/DME110.0009W
HLGr114/16.8WHEELING VOR/DME112.2007W
AIRr078/29.2BELLAIRE VOR/DME117.1007W
EWCr188/38.7ELLWOOD CITY VOR/DME115.8008W

 
NDB name  Hdg/Dist  Freq  Var  ID
CADIZ102/36.623907WCFX -.-. ..-. -..-

Heliport Services

Runway Information

Helipad H1

Dimensions: 60 x 60 ft. / 18 x 18 m
Surface: concrete
Traffic pattern: leftleft

Heliport Ownership and Management from official FAA records

Ownership: Privately-owned
Owner: ANGELO FALCONI
928 EAST BEAU ST
WASHINGTON, PA 15301
Phone 412-229-7778
Manager: EDWARD C. MORASCYZK
382 WEST CHESTNUT ST
WASHINGTON, PA 15301
Phone 724-225-3355

Heliport Operational Statistics

Aircraft based on the field: 1
Helicopters: 1
    

Additional Remarks

FOR CD CTC PITTSBURGH APCH AT 412-472-5591

Instrument Procedures

There are no published instrument procedures at 5PS0.

Some nearby airports with instrument procedures:

KAFJ - Washington County Airport (4 nm SW)
G05 - Finleyville Airpark (10 nm NE)
KAGC - Allegheny County Airport (17 nm NE)
KWAY - Greene County Airport (17 nm S)
KFWQ - Rostraver Airport (18 nm E)
KPIT - Pittsburgh International Airport (19 nm N)
KHLG - Wheeling Ohio County Airport (20 nm W)
 
Loc | Ops | Rwys | IFR | FBO | Links
Com | Nav | Svcs | Stats | Notes
Area around 5PS0 (Beau Street Heliport)
 
Road maps at: MapQuest Bing Google
 
Aerial photo
No photo
 
Sectional chart

 
Airport distance calculator
Flying to Beau Street Heliport? Find the distance to fly.

From to 5PS0

Sunrise and sunset
Times for 05-Jul-2020
 Local
(UTC-4)
 Zulu
(UTC)
Morning civil twilight05:2609:26
Sunrise05:5909:59
Sunset20:5200:52
Evening civil twilight21:2501:25

Current date and time
Zulu (UTC)  06-Jul-2020 02:59:40
Local (UTC-4)  05-Jul-2020 22:59:40
 
METAR
KAFJ 
4nm SW 
060156Z AUTO 00000KT 10SM CLR 23/19 A3003 RMK AO2 SLP158 T02280194
KAGC 
17nm NE 
060253Z 11003KT 10SM CLR 27/17 A3000 RMK AO2 SLP151 T02670167 53015
KP53 
18nm E 
060156Z AUTO 00000KT 22/18 A2994 RMK AO1 SLP137 T02220183
KPIT 
19nm N 
060251Z 27006KT 10SM FEW100 FEW250 26/17 A3000 RMK AO2 SLP153 T02560172 51015
KHLG 
20nm W 
060253Z AUTO 19004KT 10SM CLR 24/18 A3000 RMK AO2 SLP151 T02390178 51014
TAF
KAGC 
17nm NE 
051721Z 0518/0618 VRB02KT P6SM SCT060 FM061500 28003KT P6SM SCT250
KPIT 
19nm N 
052057Z 0521/0624 29006KT P6SM SCT060 FM061500 28003KT P6SM SCT250
KHLG 
20nm W 
051721Z 0518/0618 VRB02KT P6SM SKC FM061500 26003KT P6SM SCT250
NOTAMs
Click for the latest NOTAMs
NOTAMs are issued by the DoD/FAA and will open in a separate window not controlled by AirNav.

 

 
 

Would you like to see your business listed on this page?

 If your business provides an interesting product or service to pilots, flight crews, aircraft, or users of the Beau Street Heliport, you should consider listing it here.  To start the listing process, click on the button below
 
Add a business
 

Other Pages about Beau Street Heliport

Update a link
 
Copyright © AirNav, LLC. All rights reserved. Privacy Policy  Contact